Weather in Perdika

Greece     37°41′32″N   23°27′11″E
temp.,
°C
wind,
m/s
gust,
m/s
humid.,
%
clouds,
%
prec.,
mm/h
press.,
hPa
HPBL,
m
17 october, sun
sun1700:00+20nw66675 0.0 1015588
03:00+20nnw557082 0.3 1015549
06:00+19nnw447020 0.3 1016718
09:00+19nnw347096 0.9 1017578
12:00+19n226616 0.4 1018521
15:00+19sse006329 0.4 1017295
18:00+20ese11625 0.1 1018435
21:00+20se116420 0.3 1019434
18 october, mon
mon1800:00+19ne226761 1.5 1019418
03:00+19ne436779 2.3 1020644
06:00+19ne437115 0.2 1020581
09:00+18nne33704 0.3 1021613
12:00+19nne22663 0.0 1021597
15:00+19w11610 0.0 1020278
18:00+20sw01561 0.1 1020317
21:00+20se21605 0.1 1022693
19 october, tue
tue1900:00+20nne22615 0.0 1023827
03:00+19nne44634 0.0 1023591
06:00+19nne44640 0.0 1023594
09:00+18nne55670 0.0 1025588
12:00+19n56650 0.0 1026810
15:00+20nnw355752 0.0 10251021
18:00+21n565777 0.1 10251098
21:00+20ne66590 0.1 1026956
20 october, wed
wed2000:00+19nne66620 0.0 1027771
03:00+19n67630 0.0 1027809
06:00+18n79630 0.0 1026919
09:00+18n68625 0.0 10271006
12:00+19n565928 0.0 10271126
15:00+20wnw45555 0.0 1026935
18:00+20n34510 0.0 1025652
21:00+20ne43520 0.0 1025781
21 october, thu
thu2100:00+20nne22540 0.0 1025532
03:00+19nne22590 0.0 1024546
06:00+19n22600 0.0 1023528
09:00+19nnw12590 0.0 1024546
12:00+19ne01590 0.0 1024480
15:00+20se22620 0.0 1022436
18:00+20sse33665 0.0 1021522
21:00+21sse22645 0.0 1021586